TimeCST,TemperatureF,Dew PointF,Humidity,Sea Level PressureIn,VisibilityMPH,Wind Direction,Wind SpeedMPH,Gust SpeedMPH,PrecipitationIn,Events,Conditions,WindDirDegrees,DateUTC
12:53 AM,39.9,26.1,58,30.13,10.0,South,13.8,23.0,N/A,,Overcast,190,2012-12-31 06:53:00
1:53 AM,39.0,28.9,67,30.13,10.0,South,13.8,19.6,N/A,,Overcast,190,2012-12-31 07:53:00
2:53 AM,39.0,32.0,76,30.13,7.0,South,8.1,-,0.00,Rain,Light Rain,190,2012-12-31 08:53:00
3:25 AM,37.4,33.8,87,30.12,5.0,South,8.1,-,0.03,Rain,Light Rain,190,2012-12-31 09:25:00
3:53 AM,37.9,35.1,89,30.13,3.0,South,9.2,-,0.07,Rain,Rain,190,2012-12-31 09:53:00
4:18 AM,37.4,35.6,93,30.10,2.5,South,8.1,-,0.04,Rain,Rain,170,2012-12-31 10:18:00
4:32 AM,37.4,35.6,93,30.10,2.5,South,9.2,-,0.06,Rain,Rain,170,2012-12-31 10:32:00
4:53 AM,37.0,35.1,93,30.12,2.5,South,9.2,-,0.09,Rain,Light Rain,180,2012-12-31 10:53:00
5:02 AM,37.4,35.6,93,30.09,3.0,South,9.2,-,0.01,Rain,Light Rain,180,2012-12-31 11:02:00
5:11 AM,37.4,35.6,93,30.09,2.5,South,10.4,-,0.02,Rain,Light Rain,180,2012-12-31 11:11:00
5:19 AM,37.4,35.6,93,30.08,2.5,South,9.2,-,0.02,Rain,Light Rain,170,2012-12-31 11:19:00
5:33 AM,37.4,35.6,93,30.07,3.0,South,10.4,-,0.04,Rain,Light Rain,170,2012-12-31 11:33:00
5:42 AM,37.4,35.6,93,30.06,3.0,SSE,8.1,-,0.04,Rain,Light Rain,160,2012-12-31 11:42:00
5:53 AM,37.0,35.1,93,30.08,3.0,SSE,5.8,-,0.05,Rain,Light Rain,160,2012-12-31 11:53:00
6:15 AM,37.4,33.8,87,30.05,3.0,SSE,10.4,-,0.03,Rain,Light Rain,160,2012-12-31 12:15:00
6:27 AM,37.4,33.8,87,30.05,2.5,SSE,8.1,-,0.06,Rain,Rain,160,2012-12-31 12:27:00
6:53 AM,37.0,34.0,89,30.07,2.0,SSE,8.1,-,0.10,Rain,Rain,160,2012-12-31 12:53:00
7:18 AM,35.6,33.8,93,30.05,3.0,SSE,8.1,-,0.04,Rain,Rain,160,2012-12-31 13:18:00
7:33 AM,35.6,33.8,93,30.05,2.5,SSE,9.2,-,0.08,Rain,Rain,160,2012-12-31 13:33:00
7:45 AM,35.6,33.8,93,30.05,2.5,SSE,6.9,-,0.09,Rain,Light Rain,150,2012-12-31 13:45:00
7:53 AM,36.0,34.0,93,30.07,2.5,SSE,9.2,-,0.10,Rain,Rain,150,2012-12-31 13:53:00
8:03 AM,35.6,33.8,93,30.04,3.0,SSE,10.4,-,0.01,Rain,Light Rain,150,2012-12-31 14:03:00
8:15 AM,35.6,33.8,93,30.04,2.5,SSE,9.2,-,0.02,Rain,Light Rain,160,2012-12-31 14:15:00
8:29 AM,35.6,33.8,93,30.04,4.0,SSE,10.4,-,0.03,Rain,Light Rain,150,2012-12-31 14:29:00
8:53 AM,36.0,34.0,93,30.06,3.0,SSE,10.4,-,0.03,,Overcast,160,2012-12-31 14:53:00
9:09 AM,35.6,33.8,93,30.05,6.0,SSE,8.1,-,N/A,,Overcast,160,2012-12-31 15:09:00
9:38 AM,35.6,33.8,93,30.05,6.0,SSE,5.8,-,N/A,,Overcast,150,2012-12-31 15:38:00
9:53 AM,36.0,34.0,93,30.07,5.0,SSE,5.8,-,N/A,,Overcast,150,2012-12-31 15:53:00
10:53 AM,37.0,35.1,93,30.08,1.8,SSE,4.6,-,N/A,,Overcast,160,2012-12-31 16:53:00
11:53 AM,37.0,35.1,93,30.03,1.0,SSE,4.6,-,N/A,,Overcast,160,2012-12-31 17:53:00
12:53 PM,37.9,36.0,93,29.99,2.5,South,5.8,-,N/A,,Overcast,190,2012-12-31 18:53:00
1:00 PM,39.2,35.6,87,29.97,3.0,SSW,5.8,-,N/A,,Overcast,200,2012-12-31 19:00:00
1:30 PM,39.2,37.4,93,29.95,2.5,South,5.8,-,N/A,,Overcast,170,2012-12-31 19:30:00
1:53 PM,39.0,37.0,93,29.96,2.5,South,8.1,-,N/A,,Overcast,170,2012-12-31 19:53:00
2:08 PM,39.2,37.4,93,29.94,3.0,South,4.6,-,N/A,,Overcast,180,2012-12-31 20:08:00
2:34 PM,39.2,37.4,93,29.94,2.5,South,4.6,-,N/A,,Overcast,190,2012-12-31 20:34:00
2:53 PM,39.9,37.9,93,29.96,2.5,South,5.8,-,N/A,,Overcast,180,2012-12-31 20:53:00
3:53 PM,41.0,37.9,89,29.98,2.5,WSW,3.5,-,N/A,,Overcast,250,2012-12-31 21:53:00
4:53 PM,41.0,37.9,89,29.99,2.0,WSW,4.6,-,N/A,,Overcast,240,2012-12-31 22:53:00
5:12 PM,41.0,37.4,87,29.97,3.0,West,5.8,-,N/A,,Overcast,260,2012-12-31 23:12:00
5:46 PM,41.0,39.2,93,29.98,3.0,West,3.5,-,N/A,,Overcast,260,2012-12-31 23:46:00
5:53 PM,41.0,39.0,93,30.01,3.0,WSW,3.5,-,N/A,,Overcast,250,2012-12-31 23:53:00
6:27 PM,41.0,39.2,93,30.00,4.0,West,3.5,-,N/A,,Overcast,270,2013-01-01 00:27:00
6:53 PM,41.0,37.9,89,30.03,4.0,WNW,4.6,-,N/A,,Overcast,290,2013-01-01 00:53:00
7:42 PM,39.2,37.4,93,30.02,5.0,West,5.8,-,N/A,,Overcast,270,2013-01-01 01:42:00
7:53 PM,39.9,37.9,93,30.05,5.0,West,6.9,-,N/A,,Overcast,260,2013-01-01 01:53:00
8:53 PM,39.9,37.0,89,30.06,4.0,WNW,8.1,-,N/A,,Overcast,290,2013-01-01 02:53:00
9:18 PM,39.2,37.4,93,30.04,5.0,WNW,6.9,-,N/A,,Overcast,290,2013-01-01 03:18:00
9:53 PM,39.9,37.9,93,30.07,4.0,WNW,5.8,-,N/A,,Overcast,300,2013-01-01 03:53:00
10:02 PM,39.2,37.4,93,30.05,4.0,NW,3.5,-,N/A,,Overcast,320,2013-01-01 04:02:00
10:36 PM,39.2,37.4,93,30.07,6.0,NW,8.1,-,N/A,,Overcast,310,2013-01-01 04:36:00
10:53 PM,39.0,35.1,86,30.10,8.0,NW,9.2,18.4,N/A,,Overcast,320,2013-01-01 04:53:00
11:12 PM,37.4,35.6,93,30.08,7.0,NW,10.4,18.4,N/A,,Overcast,320,2013-01-01 05:12:00
11:53 PM,37.0,35.1,93,30.11,4.0,NW,8.1,-,N/A,,Overcast,320,2013-01-01 05:53:00